Location: Benalto
(52.3088°N, 114.2787°W)
Time: 12:25:03
(UTC+00:00)

N. Korean satellite - Pass Details

Date: 30 November 2021
Orbit: 447 x 491 km, 97.3° (Epoch: 21 January)

Event Time Altitude Azimuth Distance (km) Brightness Sun altitude
Rises 00:06:39 0° 175° (S) 2,545 10.5 -5.7°
Reaches altitude 10° 00:08:45 10° 179° (S) 1,663 9.7 -6.0°
Maximum altitude 00:12:17 57° 259° (W) 570 7.3 -6.5°
Drops below altitude 10° 00:15:47 10° 339° (NNW) 1,650 9.2 -7.0°
Sets 00:17:51 0° 344° (NNW) 2,524 10.1 -7.2°
